Los Angeles, CA

9:50 PM PDT on August 25, 2016 (GMT -0700)
Los Angeles International

Weather History for KLAX - November, 2012

Change the Weather History Date:

Wednesday, November 21, 2012

  Actual Average Record
Temperature  
Mean Temperature 59 °F 60 °F  
Max Temperature 66 °F 68 °F 89 °F (2015)
Min Temperature 52 °F 52 °F 42 °F (1964)
Degree Days  
Heating Degree Days 6 5  
Month to date heating degree days 56 81  
Since 1 July heating degree days 73 125  
Cooling Degree Days 0 0  
Month to date cooling degree days 24 18  
Year to date cooling degree days 735 549  
Growing Degree Days 8 (Base 50)    
Moisture  
Dew Point 54 °F    
Average Humidity 84    
Maximum Humidity 100    
Minimum Humidity 67    
Precipitation  
Precipitation 0.00 in 0.04 in 5.60 in (1967)
Month to date precipitation 0.32 0.70  
Year to date precipitation 5.08 10.36  
Since 1 July precipitation 0.47  
Sea Level Pressure  
Sea Level Pressure 30.07 in    
Wind  
Wind Speed 5 mph (ESE)    
Max Wind Speed 10 mph    
Max Gust Speed 14 mph    
Visibility 4 miles    
Events Fog    
T = Trace of Precipitation, MM = Missing Value Source: NWS Daily Summary

Daily Weather History Graph

Daily Weather History Graph

Search for Another Location

Airport or City:

Trip Planner

Search our weather history database for the weather conditions in past years. The results will help you decide how hot, cold, wet, or windy it might be!

Date:

Astronomy

Nov. 21, 2012 Rise Set
Actual Time 6:32 AM PST 4:46 PM PST
Civil Twilight 6:05 AM PST 5:13 PM PST
Nautical Twilight 5:34 AM PST 5:44 PM PST
Astronomical Twilight 5:04 AM PST 6:14 PM PST
Moon 12:50 PM PST (11/21) 12:12 AM PST (11/21)
Length of Visible Light 11h 08m
Length of Day
10h 14m
Waxing Gibbous, 63% of the Moon is Illuminated
Nov 21
Waxing Gibbous
Nov 28
Full
Dec 6
Last Quarter
Dec 13
New
Dec 19
First Quarter

Hourly Weather History & Observations

Time (PST) Temp. Dew Point Humidity Pressure Visibility Wind Dir Wind Speed Gust Speed Precip Events Conditions
12:17 AM 57.2 °F 55.4 °F 94% 30.07 in 0.8 mi ESE 3.5 mph - N/A Fog Patches of Fog
12:40 AM 59.0 °F 55.4 °F 88% 30.07 in 2.5 mi SSE 5.8 mph - N/A Fog Patches of Fog
12:53 AM 58.1 °F 55.9 °F 93% 30.06 in 4.0 mi SE 4.6 mph - N/A Fog Patches of Fog
1:53 AM 59.0 °F 57.2 °F 94% 30.06 in 4.0 mi East 3.5 mph - N/A Fog Patches of Fog
2:14 AM 57.2 °F 55.4 °F 94% 30.07 in 0.5 mi NE 5.8 mph - N/A Fog Fog
2:39 AM 55.4 °F 55.4 °F 100% 30.06 in 0.2 mi ENE 5.8 mph - N/A Fog Fog
2:53 AM 55.8 °F 55.0 °F 97% 30.06 in 0.2 mi Variable 4.6 mph - N/A Fog Fog
3:13 AM 55.4 °F 55.4 °F 100% 30.06 in 0.5 mi ESE 5.8 mph - N/A Fog Fog
3:20 AM 57.2 °F 55.4 °F 94% 30.06 in 1.0 mi ESE 4.6 mph - N/A Fog Patches of Fog
3:53 AM 55.9 °F 55.9 °F 100% 30.06 in 1.2 mi ESE 3.5 mph - N/A Fog Patches of Fog
4:29 AM 55.4 °F 55.4 °F 100% 30.06 in 2.5 mi Calm Calm - N/A Fog Patches of Fog
4:53 AM 55.0 °F 54.0 °F 96% 30.06 in 0.8 mi ESE 3.5 mph - N/A Fog Patches of Fog
5:01 AM 53.6 °F 53.6 °F 100% 30.07 in 0.2 mi SE 4.6 mph - N/A Fog Fog
5:24 AM 53.6 °F 53.6 °F 100% 30.07 in 2.5 mi ESE 4.6 mph - N/A Fog Patches of Fog
5:51 AM 53.6 °F 51.8 °F 94% 30.08 in 3.0 mi East 4.6 mph - N/A Fog Patches of Fog
5:53 AM 53.1 °F 52.0 °F 96% 30.07 in 3.0 mi ESE 4.6 mph - N/A Fog Patches of Fog
6:21 AM 51.8 °F 51.8 °F 100% 30.09 in 2.0 mi ESE 4.6 mph - N/A Fog Patches of Fog
6:34 AM 51.8 °F 51.8 °F 100% 30.09 in 0.8 mi East 3.5 mph - N/A Fog Patches of Fog
6:48 AM 51.8 °F 51.8 °F 100% 30.10 in 0.2 mi Calm Calm - N/A Fog Fog
6:53 AM 53.1 °F 52.0 °F 96% 30.10 in 0.2 mi Calm Calm - N/A Fog Fog
7:03 AM 53.6 °F 51.8 °F 94% 30.10 in 0.5 mi NNE 3.5 mph - N/A Fog Fog
7:05 AM 51.8 °F 51.8 °F 100% 30.10 in 0.5 mi NNE 3.5 mph - N/A Fog Fog
7:14 AM 51.8 °F 51.8 °F 100% 30.10 in 1.0 mi ENE 3.5 mph - N/A   Scattered Clouds
7:32 AM 53.6 °F 51.8 °F 94% 30.11 in 1.0 mi East 5.8 mph - N/A Fog Patches of Fog
7:53 AM 54.0 °F 53.1 °F 97% 30.11 in 0.8 mi ESE 6.9 mph - N/A Fog Patches of Fog
8:05 AM 53.6 °F 53.6 °F 100% 30.12 in 0.2 mi East 5.8 mph - N/A Fog Fog
8:14 AM 55.4 °F 53.6 °F 94% 30.12 in 0.5 mi East 6.9 mph - N/A Fog Fog
8:47 AM 55.4 °F 55.4 °F 100% 30.12 in 1.0 mi East 6.9 mph - N/A Fog Patches of Fog
8:53 AM 55.9 °F 55.0 °F 97% 30.12 in 1.0 mi ESE 6.9 mph - N/A Fog Patches of Fog
9:21 AM 57.2 °F 55.4 °F 94% 30.13 in 2.0 mi SE 6.9 mph - N/A Fog Patches of Fog
9:42 AM 59.0 °F 55.4 °F 88% 30.12 in 3.0 mi East 5.8 mph - N/A   Scattered Clouds
9:53 AM 60.8 °F 53.6 °F 77% 30.12 in 3.0 mi SE 5.8 mph - N/A   Scattered Clouds
10:53 AM 63.0 °F 54.0 °F 72% 30.10 in 4.0 mi Calm Calm - N/A   Haze
11:53 AM 64.9 °F 54.0 °F 68% 30.08 in 5.0 mi West 6.9 mph - N/A   Haze
12:53 PM 64.0 °F 55.0 °F 73% 30.06 in 6.0 mi WSW 8.1 mph - N/A   Haze
1:53 PM 63.0 °F 55.0 °F 75% 30.04 in 7.0 mi West 6.9 mph - N/A   Scattered Clouds
2:53 PM 63.0 °F 55.0 °F 75% 30.04 in 8.0 mi West 8.1 mph - N/A   Scattered Clouds
3:53 PM 63.0 °F 55.0 °F 75% 30.03 in 10.0 mi SW 3.5 mph - N/A   Partly Cloudy
4:53 PM 62.1 °F 55.0 °F 78% 30.02 in 9.0 mi SSW 4.6 mph - N/A   Partly Cloudy
5:53 PM 61.0 °F 55.9 °F 83% 30.04 in 10.0 mi West 5.8 mph - N/A   Clear
6:53 PM 61.0 °F 55.9 °F 83% 30.04 in 10.0 mi West 3.5 mph - N/A   Partly Cloudy
7:53 PM 61.0 °F 57.0 °F 87% 30.05 in 10.0 mi Calm Calm - N/A   Clear
8:53 PM 61.0 °F 55.9 °F 83% 30.05 in 10.0 mi East 3.5 mph - N/A   Clear
9:53 PM 60.1 °F 55.9 °F 86% 30.05 in 9.0 mi East 4.6 mph - N/A   Clear
10:53 PM 59.0 °F 55.0 °F 87% 30.06 in 6.0 mi ESE 4.6 mph - N/A   Clear
11:37 PM 59.0 °F 55.4 °F 88% 30.06 in 5.0 mi East 3.5 mph - N/A   Partly Cloudy
11:53 PM 59.0 °F 55.9 °F 90% 30.05 in 3.0 mi East 3.5 mph - N/A Fog Patches of Fog